sat.trackr.live / text

‹ back to catalog

STARS (KUKAI)

NORAD 33498 · 2009-002G

PAYLOAD ACTIVE UNKNOWN

§ Identity

Operator
Country
JPN
Launch date
2009-01-23
Launch site
TANSC
Launch vehicle
Mass (kg)
RCS (m²)
0.12

External: N2YO · Heavens-Above · Gunter

§ Orbital elements

Epoch: 2026-09-14T04:13:11.561664Z

Period
96.24 min
Inclination
98.1629°
Eccentricity
0.0006916
Mean motion
14.96281240 rev/d
Perigee alt
573.6 km
Apogee alt
583.2 km
Semi-major
6,956.5 km
B*
1.9134e-4
RAAN
208.1827°
Arg perigee
231.7377°
Mean anomaly
128.3221°
Rev number
95,178

§ Raw data

STARS (KUKAI)1 33498U 09002G   26257.17582826  .00002099  00000+0  19134-3 0  99992 33498  98.1629 208.1827 0006916 231.7377 128.3221 14.96281240951780

JSON: /api/v1/satellites/33498 · /tle

For live sub-satellite position, see the globe view (requires WebGL).

§ Visibility from observer

Set your observer location to see the next 7 days of passes ≥ 10°. The values pass through the URL so the page stays shareable.

No JS? Fill the form by hand. The geolocation button needs JavaScript.

§ Radio — SatNOGS DB

ModeDescriptionDownlinkUplink
CW CW (JR5YBO) 437.275 MHz

1 transmitter · refreshed weekly from db.satnogs.org